Погода в Новосмолинском

Россия / Нижегородская область     56°17′02″N   43°01′36″E
темп.,
°C
ветер,
м/с
пор.,
м/с
влажн.,
%
обл.,
%
осадки,
мм/ч
давл.,
гПа
погр.,
м
26 июля, пн
пн2600:00+16юз2252100 0.0 102139
03:00+13зюз226796 0.0 102231
06:00+15з1164100 0.0 102334
09:00+17юз1363100 0.0 1023148
12:00+24зюз463496 0.0 10222640
15:00+23з563959 0.0 10211702
18:00+22з494576 0.0 1020539
21:00+17зюз336286 0.0 102051
27 июля, вт
вт2700:00+18з2558100 0.0 1020113
03:00+14зсз247617 0.0 102166
06:00+16зсз25715 0.0 1020155
09:00+23сз36455 0.0 1020789
12:00+27сз463460 0.0 10192786
15:00+27сз453475 0.0 10182286
18:00+21св585412 0.0 1017347
21:00+15юв1193100 1.9 101818
28 июля, ср
ср2800:00+15юз119380 1.5 101814
03:00+14ссз01945 1.5 101810
06:00+16ссв01893 0.0 101759
09:00+21всв01663 0.0 1017553
12:00+27зюз124399 0.0 10151478
15:00+28зюз243770 0.0 10132492
18:00+27ссв114248 0.0 1012457
21:00+21ююв366170 0.1 1011119
29 июля, чт
чт2900:00+16зюз3892100 0.0 1011184
03:00+16ююз2791100 0.1 1009154
06:00+18ююз31083100 0.1 1008408
09:00+17ю3995100 1.2 1006547
12:00+18юз2594100 0.3 1004416
15:00+22зсз5772100 0.5 10041090
18:00+24з4863100 0.1 10031269
21:00+19юз3885100 0.1 1003163
30 июля, пт
пт3000:00+19зюз3986100 0.0 1003198
03:00+18з378192 0.0 1004150
06:00+19з267836 0.0 1005176
09:00+25з35515 0.0 1005905
12:00+28з46395 0.0 10051965
15:00+27зсз3543100 0.0 10051189
18:00+24з2357100 0.0 100595
21:00+21з116832 0.0 100511